[[{"header":{"parameterUnit":"m.s-1","parameterCategory":2,"la1":30.2991,"la2":30.254,"lo1":-89.0895,"lo2":-89.0444,"dy":0.0017,"dx":0.0017,"nx":28,"ny":28,"refTime":"2024-02-05T03:00:00:Z","depth":"0","parameterNumber":2,"parameterNumberName":"U-component_of_CURRENTS"},"data":[0,0,0,0,0,0,0,0,0,0,0,0,0,0,0,0,0,0,0,0,0,0,0,0,0,0,0,0,0,0,0,0,0,0,0,0,0,0,0,0,0,0,0,0,0,0,0,0,0,0,0,0,0,0,0,0,0,0,0.3831,0.3831,0,0.386,0.386,0.386,0.3842,0.3841,0.3841,0.384,0.382,0.382,0.382,0,0,0,0,0,0,0,0,0,0,0,0,0,0.3771,0.3772,0.3831,0.3831,0.3832,0.386,0.386,0.386,0.3842,0.3841,0.3841,0.384,0.382,0.382,0.382,0,0,0,0,0,0,0,0,0,0,0,0,0,0.3795,0.3772,0.3831,0.3829,0.3829,0.3859,0.386,0.386,0.3842,0.3841,0.3841,0.384,0.382,0.382,0.382,0.3835,0,0,0.3819,0.3819,0,0,0,0,0,0,0,0,0.3794,0.3797,0.3828,0.3829,0.383,0.3849,0.3831,0.385,0.3842,0.3834,0.384,0.3839,0.3828,0.3827,0.383,0.3834,0.3834,0.3819,0.3819,0.3819,0.3819,0,0,0,0,0,0,0,0.3792,0.3796,0.3839,0.3829,0.383,0.3831,0.3833,0.3835,0.3832,0.3835,0.3834,0.3843,0.3827,0.383,0.383,0.3833,0.3819,0.3819,0.3819,0.3819,0.3889,0.3891,0,0,0,0,0,0,0.3796,0.3794,0.3838,0.384,0.3813,0.3833,0.3835,0.3841,0.3833,0.3832,0.3844,0.3842,0.3831,0.383,0.3829,0.3872,0.3819,0.3819,0.3819,0.3887,0.389,0.3892,0,0,0,0,0,0,0.3794,0.3799,0.3837,0.382,0.3826,0.3835,0.3842,0.3842,0.3851,0.3841,0.3838,0.3853,0.383,0.3829,0.3844,0.3869,0.3819,0.3819,0.3885,0.3888,0.3891,0.3941,0,0,0,0,0,0,0.3792,0.3798,0.3804,0.3821,0.3827,0.3864,0.3843,0.3843,0.3859,0.3857,0.3848,0.3845,0.3829,0.3845,0.3844,0.3868,0.3819,0.3883,0.3886,0.389,0.3937,0.3946,0.3953,0,0,0,0,0,0.379,0.38,0.3804,0.3809,0.3834,0.3866,0.3869,0.387,0.386,0.3873,0.3869,0.3845,0.3867,0.3846,0.3845,0.387,0.3881,0.3885,0.3889,0.3934,0.3944,0.3952,0,0,0,0,0,0,0.3774,0.38,0.3804,0.3821,0.3847,0.3864,0.3876,0.3879,0.3886,0.3882,0.3865,0.3863,0.3892,0.3878,0.3855,0.3904,0.3873,0.3877,0.3907,0.3916,0.3924,0.395,0.3819,0,0,0,0,0,0.3776,0.3791,0.3819,0.3834,0.385,0.3866,0.3878,0.3884,0.3894,0.3896,0.3891,0.3893,0.391,0.3909,0.392,0.3938,0.3954,0.3957,0.3965,0.3971,0.3995,0.4041,0.4055,0.3906,0.3906,0.3905,0,0,0.3773,0.3791,0.3799,0.3833,0.3851,0.3878,0.387,0.3898,0.3924,0.3894,0.3919,0.3923,0.3925,0.3953,0.3964,0.394,0.4024,0.3977,0.3982,0.4003,0.4047,0.4061,0.4074,0.3908,0.3908,0.3908,0,0,0.3783,0.3796,0.3816,0.3841,0.3878,0.3892,0.3904,0.393,0.3946,0.3971,0.397,0.3995,0.3995,0.4017,0.4024,0.4084,0.4071,0.408,0.4127,0.4171,0.4183,0.4195,0.4235,0.425,0.4072,0.4072,0.4072,0,0.3779,0.3807,0.3828,0.3857,0.3882,0.3901,0.3933,0.3957,0.3984,0.401,0.3984,0.4036,0.4033,0.4092,0.4114,0.4103,0.4121,0.4085,0.4181,0.4192,0.4203,0.4242,0.4257,0.4075,0.4075,0.4074,0.4074,0,0.3806,0.3831,0.3848,0.3889,0.3921,0.3951,0.3993,0.4024,0.4035,0.4058,0.4118,0.4123,0.4154,0.4159,0.4151,0.4233,0.422,0.4191,0.4154,0.4221,0.4257,0.4273,0.4079,0.4078,0.4077,0.4077,0,0,0.3778,0.3852,0.3854,0.3873,0.3941,0.3957,0.4027,0.4089,0.4129,0.4154,0.4212,0.4252,0.426,0.4273,0.4273,0.4309,0.4397,0.4283,0.4284,0.4319,0.4497,0.4478,0.4493,0.4377,0.438,0.4382,0.4492,0,0.379,0.3834,0.3885,0.3925,0.3948,0.4008,0.4063,0.4122,0.4175,0.4232,0.4272,0.4322,0.4302,0.432,0.436,0.4399,0.444,0.4371,0.4432,0.4435,0.4406,0.4511,0.4364,0.4449,0.4507,0.4509,0.4511,0,0.3791,0.3821,0.3867,0.3932,0.395,0.3983,0.4074,0.4133,0.4242,0.4288,0.4361,0.4394,0.4484,0.4436,0.4546,0.4501,0.4515,0.4529,0.4532,0.4512,0.4445,0.4393,0.4474,0.4356,0.4534,0.4532,0.4531,0,0.3728,0.38,0.383,0.3852,0.3937,0.3976,0.4027,0.4141,0.4221,0.4337,0.4401,0.4492,0.4552,0.4594,0.4646,0.4601,0.4752,0.4684,0.4682,0.468,0.457,0.4554,0.4541,0.4761,0.4761,0.476,0.476,0,0.3707,0.3721,0.3793,0.3802,0.3849,0.3923,0.4004,0.4084,0.4225,0.4308,0.4419,0.4506,0.4596,0.4689,0.4698,0.4764,0.4799,0.4733,0.4724,0.4583,0.4568,0.447,0.4423,0.4764,0.4763,0.4763,0.4762,0,0.3634,0.3684,0.3713,0.3791,0.3821,0.3848,0.3998,0.4049,0.4199,0.4321,0.4368,0.4561,0.4685,0.4771,0.4864,0.4843,0.4767,0.4891,0.4729,0.4699,0.4559,0.4521,0.4378,0.4252,0.4908,0.4908,0.4909,0,0.3601,0.3608,0.3685,0.3702,0.374,0.3806,0.3852,0.4016,0.4094,0.4334,0.4377,0.4581,0.4704,0.4882,0.4899,0.4957,0.4782,0.4817,0.4706,0.4574,0.4525,0.4331,0.422,0.4577,0.4575,0.4573,0.4571,0,0.3537,0.3565,0.3587,0.3627,0.3664,0.3721,0.3806,0.3882,0.4057,0.4173,0.435,0.4493,0.4723,0.4757,0.4865,0.4861,0.4599,0.4779,0.4677,0.432,0.4073,0.3937,0.4484,0.4554,0.4556,0.4557,0.4558,0.4559,0.3479,0.3479,0.3508,0.3532,0.357,0.36,0.3603,0.3711,0.3821,0.3953,0.4191,0.4322,0.4525,0.469,0.4659,0.4541,0.4511,0.4397,0.4382,0.4211,0.4024,0.4551,0.4585,0.4586,0.4588,0.4589,0.4591,0,0.3383,0.3389,0.3408,0.3414,0.3385,0.3461,0.3524,0.3498,0.3534,0.3734,0.3875,0.4078,0.4159,0.4272,0.4312,0.4175,0.3945,0.4043,0.3725,0.365,0.416,0.4081,0.3963,0.3963,0.3963,0.3963,0.3963,0.3963,0.3331,0.3294,0.3296,0.3213,0.3212,0.3131,0.313,0.3132,0.323,0.332,0.3433,0.3625,0.3951,0.4082,0.3985,0.3875,0.356,0.3411,0.3385,0.3752,0.3782,0.3809,0.3722,0.3531,0.353,0.27,0.2694,0.269]},{"header":{"parameterUnit":"m.s-1","parameterCategory":2,"la1":30.2991,"la2":30.254,"lo1":-89.0895,"lo2":-89.0444,"dy":0.0017,"dx":0.0017,"nx":28,"ny":28,"refTime":"2024-02-05T03:00:00:Z","depth":"0","parameterNumber":3,"parameterNumberName":"V-component_of_CURRENTS"},"data":[0,0,0,0,0,0,0,0,0,0,0,0,0,0,0,0,0,0,0,0,0,0,0,0,0,0,0,0,0,0,0,0,0,0,0,0,0,0,0,0,0,0,0,0,0,0,0,0,0,0,0,0,0,0,0,0,0,0,0.0063,0.0062,0,-0.0006,-0.0007,-0.0008,-0.0058,-0.0058,-0.0058,-0.0058,-0.0145,-0.0147,-0.0149,0,0,0,0,0,0,0,0,0,0,0,0,0,0.0089,0.0089,0.0063,0.0062,0.0062,-0.0006,-0.0007,-0.0008,-0.0058,-0.0058,-0.0058,-0.0059,-0.0144,-0.0146,-0.0149,0,0,0,0,0,0,0,0,0,0,0,0,0,0.0053,0.0089,0.0063,0.003,0.0027,-0.0005,-0.0007,-0.0008,-0.0058,-0.0058,-0.0058,-0.0059,-0.0143,-0.0146,-0.0149,-0.0161,0,0,-0.0159,-0.016,0,0,0,0,0,0,0,0,0.0055,0.0052,0.0036,0.0032,0.0028,-0.0022,-0.0029,-0.006,-0.0058,-0.0028,-0.0058,-0.0059,-0.0104,-0.011,-0.0125,-0.0165,-0.0169,-0.0159,-0.0161,-0.0162,-0.0163,0,0,0,0,0,0,0,0.0058,0.0054,0.0034,0.0035,0.0031,-0.0002,-0.0008,-0.0036,-0.0065,-0.003,-0.0034,-0.0038,-0.0106,-0.0122,-0.0127,-0.017,-0.0159,-0.0162,-0.0164,-0.0165,-0.0223,-0.0223,0,0,0,0,0,0,0.0074,0.0057,0.0036,0.0032,0.0043,-0.0002,-0.0008,-0.0007,-0.0064,-0.0072,-0.0038,-0.004,-0.0116,-0.0123,-0.013,-0.0127,-0.0162,-0.0165,-0.0167,-0.0224,-0.0223,-0.0223,0,0,0,0,0,0,0.0075,0.0073,0.0039,0.0044,0.0037,-0.0002,-0.0,-0.0008,-0.0018,-0.0069,-0.0078,-0.0039,-0.0117,-0.0126,-0.0146,-0.0132,-0.0166,-0.0169,-0.0224,-0.0224,-0.0223,-0.0134,0,0,0,0,0,0,0.0076,0.0074,0.008,0.0045,0.0038,0.0034,-0.0,-0.0009,-0.002,-0.0023,-0.0073,-0.0082,-0.0118,-0.0141,-0.0149,-0.0137,-0.0172,-0.0224,-0.0224,-0.0223,-0.0137,-0.0131,-0.0125,0,0,0,0,0,0.0077,0.0095,0.0081,0.0078,0.0048,0.0035,0.0029,-0.0003,-0.0019,-0.0015,-0.0051,-0.008,-0.0143,-0.0143,-0.0152,-0.0141,-0.0225,-0.0224,-0.0223,-0.014,-0.0132,-0.0125,0,0,0,0,0,0,0.011,0.009,0.0074,0.0085,0.0066,0.0028,0.0028,0.0006,-0.002,-0.0023,-0.0074,-0.0085,-0.0099,-0.0133,-0.0131,-0.0158,-0.019,-0.0191,-0.0124,-0.0116,-0.011,-0.0081,-0.0174,0,0,0,0,0,0.012,0.0127,0.0101,0.0108,0.0103,0.0066,0.0057,0.0038,0.0011,-0.0002,-0.0037,-0.0076,-0.0105,-0.0119,-0.0152,-0.0162,-0.0199,-0.0163,-0.0157,-0.0151,-0.0135,-0.0181,-0.0177,-0.0221,-0.0221,-0.0221,0,0,0.0134,0.0125,0.0127,0.0115,0.0096,0.0103,0.006,0.0056,0.0063,-0.0006,-0.0009,-0.0054,-0.0104,-0.0117,-0.0127,-0.0141,-0.016,-0.015,-0.0145,-0.0131,-0.018,-0.0175,-0.0171,-0.022,-0.022,-0.022,0,0,0.0172,0.0158,0.0179,0.0172,0.0156,0.0133,0.0138,0.0107,0.0097,0.0084,0.0037,0.0006,-0.0042,-0.007,-0.0092,-0.0071,-0.0126,-0.0087,-0.0028,-0.0073,-0.0069,-0.0066,-0.0111,-0.0113,-0.0082,-0.0081,-0.0081,0,0.0189,0.0212,0.0182,0.0203,0.0207,0.0155,0.0182,0.0163,0.013,0.0131,0.0096,0.0027,-0.0017,-0.0028,-0.0024,-0.0054,-0.0091,-0.0049,-0.0063,-0.0061,-0.006,-0.0106,-0.0109,-0.0077,-0.0078,-0.0078,-0.0078,0,0.0246,0.0263,0.0276,0.0284,0.0283,0.0297,0.0272,0.0272,0.0243,0.0216,0.0195,0.0124,0.0088,0.0061,0.0024,0.0016,-0.0017,-0.005,-0.0076,-0.005,-0.0101,-0.0105,-0.0071,-0.0072,-0.0074,-0.0075,0,0,0.0294,0.0313,0.032,0.0343,0.0331,0.0341,0.0359,0.0361,0.0385,0.0322,0.0339,0.0264,0.0217,0.0189,0.0131,0.0088,0.0057,0.0031,0.0027,-0.0002,-0.0043,-0.0045,-0.0051,0.0019,0.0019,0.0019,-0.0083,0,0.0349,0.0414,0.0401,0.0457,0.0489,0.046,0.0483,0.0478,0.0455,0.0456,0.0374,0.0353,0.0268,0.0251,0.0196,0.0099,0.0048,0.0088,-0.0074,-0.0078,-0.0074,-0.0055,-0.0009,-0.0093,-0.0088,-0.0089,-0.009,0,0.0414,0.0452,0.0521,0.0562,0.0573,0.0593,0.0633,0.0649,0.0631,0.0615,0.057,0.0495,0.0431,0.0348,0.0192,0.0221,0.0102,0.0011,0.0005,-0.0027,-0.0088,-0.0121,-0.0103,-0.032,-0.0098,-0.0097,-0.0097,0,0.0482,0.0537,0.0598,0.0612,0.0644,0.0677,0.0695,0.0701,0.0744,0.0717,0.0731,0.062,0.0584,0.042,0.0233,0.0209,0.0057,-0.0004,-0.0122,-0.0124,-0.0129,-0.0131,-0.0327,-0.0118,-0.0118,-0.0118,-0.0117,0,0.0552,0.0601,0.0639,0.0675,0.0765,0.0755,0.0844,0.0851,0.0878,0.0937,0.0818,0.084,0.0601,0.0481,0.0282,0.0084,0.0091,-0.01,-0.0144,-0.0098,-0.0095,-0.0321,-0.0437,-0.0122,-0.0121,-0.012,-0.0119,0,0.0614,0.0633,0.0712,0.0769,0.08,0.0866,0.096,0.1023,0.1028,0.1105,0.1101,0.1014,0.0861,0.0613,0.0359,0.0173,-0.0151,-0.0117,-0.0042,-0.0076,-0.0391,-0.0503,-0.0736,-0.0817,-0.0268,-0.0269,-0.0269,0,0.065,0.0698,0.0795,0.0857,0.0887,0.0987,0.1063,0.1105,0.1187,0.1223,0.1275,0.1155,0.1117,0.0752,0.0393,0.0051,-0.0162,-0.0144,-0.0186,-0.0391,-0.055,-0.0641,-0.07,-0.017,-0.0169,-0.0169,-0.0169,0,0.0723,0.0752,0.082,0.0957,0.1048,0.1168,0.1282,0.1378,0.143,0.151,0.1592,0.1564,0.1214,0.0904,0.0426,0.0186,-0.0274,-0.0148,-0.0384,-0.0498,-0.0587,-0.0691,-0.0131,-0.0166,-0.0166,-0.0166,-0.0166,-0.0167,0.0775,0.084,0.0932,0.1063,0.118,0.1337,0.1456,0.1592,0.176,0.1891,0.1845,0.1866,0.1373,0.0746,0.0379,-0.026,-0.0285,-0.0455,-0.0577,-0.0655,-0.0721,-0.0146,-0.0216,-0.0216,-0.0217,-0.0217,-0.0217,0,0.0844,0.0917,0.1036,0.1191,0.1331,0.1385,0.1593,0.173,0.1953,0.2086,0.2174,0.1976,0.1374,0.0741,-0.0142,-0.0609,-0.0767,-0.0861,-0.0995,-0.1037,-0.0545,-0.0527,-0.0637,-0.0637,-0.0636,-0.0636,-0.0636,-0.0636,0.0879,0.0997,0.1059,0.1292,0.1409,0.1613,0.1744,0.1961,0.2126,0.2333,0.2384,0.2377,0.189,0.0267,-0.0833,-0.1072,-0.1384,-0.1445,-0.163,-0.1316,-0.1288,-0.1261,-0.1273,-0.1538,-0.1539,-0.2042,-0.2048,-0.2052]}],[{"header":{"parameterUnit":"m.s-1","parameterCategory":2,"la1":30.2991,"la2":30.254,"lo1":-89.0895,"lo2":-89.0444,"dy":0.0017,"dx":0.0017,"nx":28,"ny":28,"refTime":"2024-02-05T03:00:00:Z","depth":"2","parameterNumber":2,"parameterNumberName":"U-component_of_CURRENTS"},"data":[0,0,0,0,0,0,0,0,0,0,0,0,0,0,0,0,0,0,0,0,0,0,0,0,0,0,0,0,0,0,0,0,0,0,0,0,0,0,0,0,0,0,0,0,0,0,0,0,0,0,0,0,0,0,0,0,0,0,0.3307,0.3308,0,0.3346,0.3347,0.3347,0.3347,0.3347,0.3347,0.3347,0.3354,0.3354,0.3354,0,0,0,0,0,0,0,0,0,0,0,0,0,0.3238,0.3239,0.3307,0.3308,0.3309,0.3346,0.3347,0.3347,0.3347,0.3347,0.3347,0.3347,0.3354,0.3354,0.3354,0,0,0,0,0,0,0,0,0,0,0,0,0,0.3269,0.3239,0.3307,0.3316,0.3317,0.3346,0.3347,0.3347,0.3347,0.3347,0.3347,0.3346,0.3353,0.3354,0.3355,0.3365,0,0,0.3356,0.3357,0,0,0,0,0,0,0,0,0.3267,0.3271,0.3314,0.3315,0.3317,0.3344,0.3325,0.3352,0.3347,0.3333,0.3347,0.3346,0.335,0.3351,0.3355,0.3365,0.3365,0.3356,0.3357,0.3357,0.3357,0,0,0,0,0,0,0,0.3265,0.3269,0.3319,0.3314,0.3316,0.332,0.3323,0.333,0.334,0.3334,0.3335,0.3344,0.335,0.3354,0.3355,0.3366,0.3356,0.3357,0.3357,0.3358,0.3443,0.3444,0,0,0,0,0,0,0.3267,0.3268,0.3318,0.3321,0.3294,0.3321,0.3325,0.3333,0.334,0.3342,0.3344,0.3344,0.3354,0.3354,0.3355,0.3412,0.3357,0.3358,0.3358,0.3441,0.3443,0.3445,0,0,0,0,0,0,0.3265,0.3271,0.3317,0.3297,0.3304,0.3323,0.3332,0.3334,0.3352,0.3349,0.335,0.3362,0.3353,0.3354,0.338,0.341,0.3358,0.3358,0.3439,0.3441,0.3444,0.3497,0,0,0,0,0,0,0.3263,0.327,0.3279,0.3298,0.3305,0.3347,0.3333,0.3335,0.3359,0.3359,0.3364,0.3364,0.3353,0.3379,0.3381,0.341,0.3359,0.3436,0.344,0.3443,0.3493,0.3501,0.3508,0,0,0,0,0,0.326,0.3273,0.3279,0.3286,0.3316,0.3348,0.3352,0.3362,0.336,0.3375,0.3381,0.3364,0.3403,0.3381,0.3382,0.3413,0.3434,0.3439,0.3443,0.3489,0.3499,0.3508,0,0,0,0,0,0,0.3246,0.3275,0.3282,0.3303,0.3331,0.3349,0.3367,0.3374,0.3391,0.3393,0.3383,0.3384,0.3424,0.3413,0.3389,0.3451,0.3418,0.3423,0.3453,0.3463,0.347,0.3492,0.3359,0,0,0,0,0,0.3249,0.3268,0.3297,0.3316,0.3332,0.3353,0.3368,0.3379,0.3396,0.3403,0.3407,0.3419,0.3441,0.3447,0.3463,0.3488,0.3501,0.3512,0.352,0.3527,0.3547,0.359,0.3604,0.3459,0.3459,0.3459,0,0,0.3249,0.3269,0.328,0.3316,0.3337,0.3364,0.3361,0.3394,0.3423,0.3402,0.3439,0.345,0.3458,0.3494,0.3509,0.3486,0.3576,0.3532,0.3537,0.3555,0.3596,0.361,0.3623,0.3462,0.3462,0.3461,0,0,0.3261,0.328,0.3301,0.3327,0.3368,0.3383,0.3397,0.3429,0.3451,0.3484,0.3489,0.3522,0.3535,0.3559,0.3569,0.3632,0.3622,0.3634,0.3682,0.3723,0.3735,0.3746,0.3781,0.3795,0.3629,0.3629,0.3629,0,0.326,0.329,0.3313,0.3343,0.337,0.3394,0.3427,0.3454,0.349,0.352,0.3503,0.3568,0.3572,0.3634,0.3659,0.3651,0.3669,0.3639,0.3733,0.3743,0.3754,0.3788,0.3802,0.3632,0.3632,0.3631,0.3631,0,0.3286,0.3315,0.3333,0.3376,0.341,0.3443,0.3487,0.3523,0.3545,0.3571,0.364,0.3653,0.3692,0.3701,0.3698,0.378,0.3769,0.3742,0.3705,0.3771,0.3803,0.3817,0.3636,0.3635,0.3634,0.3634,0,0,0.3261,0.3337,0.334,0.3362,0.3433,0.3449,0.3523,0.3587,0.3631,0.3667,0.373,0.3779,0.3793,0.3809,0.3816,0.3852,0.3938,0.3832,0.3833,0.3862,0.4033,0.3989,0.3999,0.3923,0.3926,0.3928,0.4026,0,0.3273,0.3319,0.3369,0.3413,0.3438,0.3501,0.3558,0.3622,0.3679,0.3743,0.3789,0.3847,0.3832,0.3859,0.3898,0.3939,0.3978,0.3915,0.397,0.3972,0.392,0.4015,0.3702,0.376,0.4039,0.4042,0.4043,0,0.3273,0.3305,0.3356,0.3423,0.3442,0.3478,0.3574,0.3636,0.3749,0.38,0.3878,0.3916,0.4008,0.3967,0.4073,0.4033,0.4049,0.4063,0.4066,0.4019,0.3954,0.374,0.3775,0.4066,0.4064,0.4063,0.4061,0,0.3212,0.3286,0.3322,0.3346,0.3434,0.3477,0.3532,0.3648,0.373,0.3853,0.3919,0.401,0.4074,0.4116,0.4166,0.4128,0.4265,0.4206,0.418,0.4176,0.3921,0.389,0.4278,0.4277,0.4277,0.4277,0.4277,0,0.3192,0.321,0.3289,0.3301,0.3355,0.3431,0.352,0.36,0.3743,0.3828,0.3942,0.4026,0.4118,0.4203,0.4212,0.4259,0.4305,0.4224,0.4212,0.3931,0.3902,0.4168,0.4154,0.4281,0.428,0.4279,0.4278,0,0.3121,0.3176,0.3211,0.3296,0.3329,0.3364,0.3518,0.3571,0.3725,0.3848,0.3898,0.408,0.419,0.4269,0.4356,0.4327,0.4363,0.4357,0.403,0.3979,0.4231,0.4219,0.4344,0.4343,0.4343,0.4343,0.4342,0,0.309,0.3102,0.3188,0.321,0.3253,0.3331,0.3381,0.3546,0.3623,0.3859,0.3899,0.4087,0.4182,0.4329,0.432,0.4355,0.439,0.4064,0.3938,0.427,0.4245,0.4233,0.4222,0.3614,0.3608,0.3603,0.3599,0,0.3029,0.3063,0.3092,0.3141,0.3185,0.3246,0.3336,0.3407,0.3585,0.3694,0.3845,0.3959,0.4136,0.4058,0.4137,0.4097,0.4035,0.3964,0.4399,0.3658,0.3593,0.3565,0.3576,0.3554,0.3558,0.3562,0.3564,0.3566,0.2978,0.2981,0.3019,0.3052,0.3098,0.3124,0.313,0.3232,0.3332,0.3448,0.3652,0.3704,0.3798,0.3778,0.3681,0.3609,0.3879,0.3679,0.3689,0.3706,0.3616,0.3555,0.3492,0.3496,0.3499,0.3502,0.3505,0,0.2887,0.2898,0.2922,0.2938,0.2916,0.2996,0.3054,0.3021,0.3045,0.3201,0.3302,0.3122,0.3129,0.3207,0.3057,0.3087,0.2998,0.2934,0.2774,0.2826,0.2871,0.2731,0.2375,0.2371,0.2367,0.2363,0,0,0.2838,0.2806,0.2809,0.2738,0.275,0.2677,0.2674,0.2657,0.2719,0.2709,0.2726,0.2988,0.3144,0.2704,0.2673,0.2491,0.2617,0.2393,0.3316,0.3182,0.3219,0.3341,0.3192,0,0,0,0,0]},{"header":{"parameterUnit":"m.s-1","parameterCategory":2,"la1":30.2991,"la2":30.254,"lo1":-89.0895,"lo2":-89.0444,"dy":0.0017,"dx":0.0017,"nx":28,"ny":28,"refTime":"2024-02-05T03:00:00:Z","depth":"2","parameterNumber":3,"parameterNumberName":"V-component_of_CURRENTS"},"data":[0,0,0,0,0,0,0,0,0,0,0,0,0,0,0,0,0,0,0,0,0,0,0,0,0,0,0,0,0,0,0,0,0,0,0,0,0,0,0,0,0,0,0,0,0,0,0,0,0,0,0,0,0,0,0,0,0,0,0.0193,0.0193,0,0.013,0.0129,0.0129,0.0082,0.0082,0.0082,0.0081,0.0003,0.0001,-0.0001,0,0,0,0,0,0,0,0,0,0,0,0,0,0.0218,0.0218,0.0193,0.0193,0.0192,0.013,0.0129,0.0128,0.0082,0.0082,0.0081,0.0081,0.0003,0.0001,-0.0001,0,0,0,0,0,0,0,0,0,0,0,0,0,0.0185,0.0218,0.0193,0.0163,0.0159,0.0131,0.0129,0.0128,0.0082,0.0082,0.0081,0.0081,0.0004,0.0001,-0.0002,-0.0011,0,0,-0.001,-0.0011,0,0,0,0,0,0,0,0,0.0187,0.0184,0.0168,0.0165,0.0161,0.0115,0.0109,0.0081,0.0082,0.011,0.0081,0.0081,0.004,0.0034,0.0021,-0.0015,-0.0018,-0.001,-0.0012,-0.0013,-0.0014,0,0,0,0,0,0,0,0.0189,0.0186,0.0167,0.0167,0.0163,0.0133,0.0128,0.0103,0.0076,0.0107,0.0104,0.01,0.0038,0.0024,0.0019,-0.0019,-0.001,-0.0013,-0.0014,-0.0015,-0.0069,-0.0069,0,0,0,0,0,0,0.0204,0.0189,0.0169,0.0165,0.0175,0.0133,0.0128,0.0129,0.0077,0.0069,0.01,0.0098,0.0029,0.0022,0.0016,0.0018,-0.0013,-0.0016,-0.0017,-0.0069,-0.0069,-0.0069,0,0,0,0,0,0,0.0205,0.0203,0.0171,0.0176,0.017,0.0134,0.0135,0.0128,0.0118,0.0072,0.0063,0.0098,0.0028,0.002,0.0002,0.0014,-0.0017,-0.002,-0.0069,-0.0069,-0.0069,0.0011,0,0,0,0,0,0,0.0206,0.0204,0.0209,0.0178,0.0171,0.0167,0.0135,0.0127,0.0116,0.0113,0.0068,0.0059,0.0027,0.0006,-0.0001,0.0009,-0.0022,-0.007,-0.0069,-0.0069,0.0008,0.0014,0.0019,0,0,0,0,0,0.0207,0.0223,0.021,0.0208,0.018,0.0167,0.0161,0.0132,0.0117,0.012,0.0088,0.0061,0.0004,0.0005,-0.0004,0.0006,-0.007,-0.0069,-0.0069,0.0005,0.0013,0.0019,0,0,0,0,0,0,0.0237,0.0219,0.0204,0.0214,0.0196,0.016,0.0161,0.014,0.0116,0.0113,0.0067,0.0057,0.0044,0.0013,0.0015,-0.001,-0.0039,-0.004,0.0021,0.0027,0.0033,0.0059,-0.0024,0,0,0,0,0,0.0247,0.0254,0.0229,0.0236,0.023,0.0196,0.0187,0.0169,0.0144,0.0133,0.01,0.0065,0.0038,0.0025,-0.0004,-0.0014,-0.0049,-0.0016,-0.001,-0.0005,0.001,-0.0037,-0.0034,-0.0067,-0.0067,-0.0067,0,0,0.026,0.0251,0.0254,0.0242,0.0224,0.023,0.019,0.0185,0.0191,0.0128,0.0125,0.0084,0.004,0.0027,0.0018,0.0005,-0.0015,-0.0004,0.0001,0.0013,-0.0036,-0.0033,-0.003,-0.0066,-0.0066,-0.0066,0,0,0.0295,0.0282,0.0302,0.0295,0.0279,0.0258,0.0262,0.0232,0.0221,0.0209,0.0167,0.0137,0.0095,0.0068,0.0048,0.0067,0.0015,0.0052,0.0104,0.0058,0.0061,0.0063,0.0022,0.002,0.0056,0.0056,0.0056,0,0.0311,0.0333,0.0305,0.0323,0.0326,0.0278,0.0302,0.0284,0.0252,0.0251,0.022,0.0156,0.0116,0.0104,0.0108,0.0081,0.0047,0.0085,0.0067,0.0068,0.0069,0.0026,0.0023,0.006,0.006,0.0059,0.0059,0,0.0363,0.0379,0.0391,0.0398,0.0396,0.0408,0.0384,0.0383,0.0355,0.0329,0.0307,0.0242,0.0207,0.0183,0.0152,0.014,0.0111,0.008,0.0055,0.0077,0.003,0.0025,0.0066,0.0064,0.0063,0.0062,0,0,0.0407,0.0425,0.0431,0.0453,0.044,0.045,0.0464,0.0464,0.0482,0.0424,0.0435,0.0368,0.0322,0.0297,0.0243,0.0201,0.0168,0.015,0.0146,0.0119,0.007,0.0049,0.0041,0.0131,0.0131,0.0131,0.0036,0,0.0457,0.0517,0.0506,0.0557,0.0586,0.0558,0.0578,0.057,0.0546,0.0542,0.0466,0.0445,0.0368,0.0352,0.0297,0.0205,0.0158,0.0197,0.0045,0.0041,0.0027,0.0036,0.0078,-0.0003,0.0031,0.003,0.0029,0,0.0516,0.0551,0.0615,0.0653,0.0663,0.068,0.0712,0.0727,0.0703,0.0685,0.064,0.057,0.0506,0.0433,0.0283,0.031,0.0204,0.012,0.0113,0.0067,0.0011,-0.0021,-0.0015,0.002,0.002,0.0021,0.0022,0,0.0577,0.0629,0.0685,0.0698,0.0728,0.0755,0.0772,0.0771,0.081,0.0778,0.0787,0.0679,0.064,0.0489,0.0312,0.0296,0.0141,0.0093,-0.0028,-0.0031,-0.0038,-0.004,-0.0013,-0.0012,-0.0012,-0.0012,-0.0012,0,0.064,0.0686,0.0721,0.0753,0.0836,0.0827,0.0905,0.0909,0.0928,0.0979,0.0867,0.0878,0.0652,0.0532,0.0352,0.0155,0.0166,-0.0011,-0.0054,-0.001,-0.0009,-0.0023,-0.0023,-0.0016,-0.0015,-0.0014,-0.0013,0,0.0696,0.0713,0.0788,0.0839,0.0867,0.0928,0.1014,0.1068,0.1069,0.1134,0.113,0.1032,0.0872,0.0637,0.0396,0.0224,0.0025,-0.005,0.002,-0.0013,-0.013,-0.0124,-0.0198,-0.0199,-0.02,-0.0201,-0.0202,0,0.0728,0.0772,0.0863,0.0921,0.0947,0.104,0.1108,0.1145,0.1216,0.1236,0.1278,0.1146,0.1081,0.0719,0.0388,0.0068,0.0023,-0.0106,-0.0133,-0.0113,-0.0148,-0.014,-0.0134,-0.0116,-0.0117,-0.0117,-0.0117,0,0.0794,0.0821,0.0884,0.101,0.1093,0.1207,0.1307,0.139,0.1435,0.1491,0.1534,0.1481,0.1132,0.0814,0.0368,0.0161,-0.0056,-0.0118,-0.0114,-0.0071,-0.0043,-0.0075,-0.007,-0.0117,-0.0117,-0.0117,-0.0117,-0.0117,0.0841,0.09,0.0985,0.1106,0.1214,0.1355,0.1461,0.1571,0.1707,0.1787,0.1727,0.1659,0.1278,0.0721,0.0327,-0.0079,-0.0054,-0.0193,-0.019,-0.0188,-0.0156,-0.0131,-0.0217,-0.0217,-0.0218,-0.0218,-0.0218,0,0.0901,0.0968,0.1077,0.122,0.1346,0.1399,0.1581,0.1688,0.1857,0.1917,0.1948,0.1599,0.123,0.0787,0.0182,-0.0177,-0.0194,-0.0283,-0.0233,-0.0228,-0.0225,-0.0195,-0.0266,-0.0268,-0.0269,-0.0271,0,0,0.0932,0.1039,0.1094,0.1305,0.1413,0.1595,0.1708,0.1865,0.1964,0.2039,0.2002,0.1904,0.137,0.0919,0.0424,0.0068,0.001,0.0013,0.0098,0.0223,0.023,-0.012,-0.0061,0,0,0,0,0]}],[{"header":{"parameterUnit":"m.s-1","parameterCategory":2,"la1":30.2991,"la2":30.254,"lo1":-89.0895,"lo2":-89.0444,"dy":0.0017,"dx":0.0017,"nx":28,"ny":28,"refTime":"2024-02-05T03:00:00:Z","depth":"4","parameterNumber":2,"parameterNumberName":"U-component_of_CURRENTS"},"data":[0,0,0,0,0,0,0,0,0,0,0,0,0,0,0,0,0,0,0,0,0,0,0,0,0,0,0,0,0,0,0,0,0,0,0,0,0,0,0,0,0,0,0,0,0,0,0,0,0,0,0,0,0,0,0,0,0,0,0.2205,0.2207,0,0.2293,0.2294,0.2295,0.2367,0.2368,0.2369,0.237,0.2474,0.2475,0.2477,0,0,0,0,0,0,0,0,0,0,0,0,0,0.2093,0.2094,0.2205,0.2207,0.2208,0.2293,0.2294,0.2295,0.2367,0.2368,0.2369,0.237,0.2473,0.2475,0.2477,0,0,0,0,0,0,0,0,0,0,0,0,0,0.2155,0.2095,0.2205,0.2256,0.2262,0.2293,0.2294,0.2295,0.2366,0.2368,0.2369,0.2371,0.2472,0.2475,0.2478,0.2465,0,0,0.2486,0.2487,0,0,0,0,0,0,0,0,0.2151,0.2158,0.2247,0.2253,0.2259,0.2323,0.2293,0.2354,0.2366,0.2324,0.237,0.2371,0.2425,0.2432,0.2441,0.247,0.2474,0.2486,0.2488,0.2489,0.249,0,0,0,0,0,0,0,0.2147,0.2155,0.2237,0.2249,0.2256,0.2272,0.2282,0.2304,0.2363,0.2328,0.2334,0.2347,0.2429,0.2438,0.2444,0.2476,0.2486,0.2489,0.249,0.2492,0.2642,0.2644,0,0,0,0,0,0,0.214,0.2151,0.2235,0.224,0.2211,0.2273,0.2285,0.2299,0.2363,0.2375,0.2346,0.235,0.2433,0.2441,0.2448,0.2563,0.2489,0.2492,0.2493,0.264,0.2642,0.2645,0,0,0,0,0,0,0.2137,0.2147,0.2231,0.22,0.2212,0.2274,0.2289,0.23,0.2358,0.2377,0.2389,0.2399,0.2434,0.2444,0.2514,0.2563,0.2493,0.2496,0.2637,0.264,0.2644,0.2712,0,0,0,0,0,0,0.2134,0.2145,0.2175,0.2199,0.2214,0.228,0.2288,0.23,0.2362,0.237,0.2426,0.2434,0.2436,0.251,0.2517,0.2565,0.2498,0.2634,0.2638,0.2643,0.2706,0.2717,0.2726,0,0,0,0,0,0.2129,0.2156,0.2176,0.2188,0.2246,0.2282,0.2291,0.2337,0.2364,0.2395,0.2439,0.2435,0.2543,0.2514,0.2521,0.2572,0.2632,0.2637,0.2642,0.2702,0.2715,0.2726,0,0,0,0,0,0,0.2125,0.2166,0.2189,0.223,0.2269,0.2296,0.2337,0.2363,0.2421,0.2446,0.2461,0.2472,0.2554,0.2553,0.2521,0.263,0.2588,0.2595,0.2631,0.2643,0.2653,0.2664,0.25,0,0,0,0,0,0.2136,0.2173,0.2207,0.2248,0.2271,0.2313,0.2344,0.2375,0.2417,0.2447,0.2485,0.253,0.2571,0.2602,0.2635,0.2689,0.2692,0.2729,0.2739,0.2747,0.2762,0.2803,0.2818,0.2662,0.2662,0.2662,0,0,0.2147,0.2177,0.22,0.2251,0.2289,0.2325,0.2337,0.2397,0.2443,0.2447,0.2538,0.257,0.2596,0.2662,0.2698,0.2674,0.2795,0.2754,0.2761,0.2772,0.281,0.2825,0.2838,0.2666,0.2665,0.2665,0,0,0.217,0.2216,0.225,0.2285,0.2349,0.237,0.2397,0.2453,0.2502,0.2572,0.2597,0.2662,0.2719,0.2752,0.2771,0.2855,0.2848,0.2873,0.293,0.2969,0.2982,0.2993,0.3018,0.3031,0.2875,0.2875,0.2875,0,0.2187,0.223,0.2267,0.2305,0.2346,0.2394,0.2439,0.2485,0.2561,0.2607,0.2616,0.2733,0.276,0.2839,0.2877,0.2878,0.2895,0.2879,0.2981,0.2992,0.3003,0.3025,0.3039,0.2879,0.2878,0.2878,0.2878,0,0.2217,0.2271,0.2298,0.2361,0.2407,0.2458,0.2517,0.2583,0.2643,0.2684,0.2794,0.2834,0.2903,0.2925,0.293,0.3027,0.3013,0.2988,0.2946,0.3022,0.3041,0.3054,0.2884,0.2883,0.2882,0.2881,0,0,0.2195,0.2299,0.2313,0.2351,0.2446,0.2473,0.2572,0.2654,0.2722,0.2802,0.2888,0.2975,0.301,0.3036,0.3059,0.31,0.3191,0.3089,0.3089,0.3105,0.3281,0.308,0.3074,0.3187,0.3189,0.3191,0.3264,0,0.2213,0.2284,0.2343,0.242,0.2458,0.2544,0.262,0.2707,0.2792,0.2884,0.2954,0.3044,0.3047,0.31,0.3145,0.3188,0.3229,0.3174,0.3212,0.3213,0.3019,0.3083,0.32,0.3273,0.3276,0.3278,0.3279,0,0.2211,0.2262,0.2344,0.2446,0.2474,0.2536,0.2667,0.2747,0.2885,0.2956,0.306,0.3117,0.3227,0.3203,0.3312,0.3282,0.3299,0.3312,0.3314,0.3112,0.3036,0.3183,0.3302,0.33,0.3298,0.3297,0.3295,0,0.2143,0.2254,0.2322,0.2359,0.2484,0.2556,0.2636,0.2777,0.2867,0.3022,0.3099,0.3212,0.3295,0.3341,0.3392,0.3369,0.3481,0.3439,0.3271,0.3257,0.3385,0.3372,0.3505,0.3505,0.3505,0.3505,0.3505,0,0.2109,0.2163,0.2302,0.2333,0.2424,0.2528,0.2652,0.2751,0.2912,0.3,0.3141,0.3216,0.3339,0.3414,0.3428,0.3388,0.3512,0.3294,0.3264,0.3412,0.3401,0.3393,0.3379,0.3508,0.3507,0.3507,0.3506,0,0.2022,0.2117,0.2196,0.2342,0.2399,0.2467,0.2662,0.273,0.2907,0.3032,0.3093,0.3264,0.3346,0.3432,0.3511,0.3416,0.3407,0.336,0.3529,0.3506,0.3147,0.3136,0.3167,0.316,0.3155,0.315,0.3147,0,0.1979,0.2015,0.2186,0.2239,0.2319,0.2446,0.2524,0.2713,0.2788,0.3022,0.305,0.3217,0.3297,0.3248,0.3352,0.3356,0.3318,0.3288,0.32,0.3145,0.3115,0.3113,0.3109,0.3138,0.3137,0.3135,0.3134,0,0.1895,0.1981,0.2047,0.2159,0.2252,0.2342,0.247,0.2514,0.2708,0.2891,0.2936,0.2983,0.3065,0.3112,0.3146,0.3141,0.3289,0.323,0.324,0.3157,0.311,0.3085,0.3088,0.3115,0.3118,0.3119,0.312,0,0.184,0.1866,0.1968,0.2048,0.2155,0.219,0.2284,0.2354,0.2457,0.2697,0.2702,0.2865,0.3023,0.3002,0.3031,0.3015,0.2963,0.2852,0.288,0.2903,0.2782,0.2682,0.2538,0,0,0,0,0,0.1766,0.1775,0.1841,0.1908,0.2003,0.2067,0.2214,0.2307,0.2494,0.2452,0.2573,0.263,0.2674,0.2769,0.2699,0.2925,0.2983,0.2831,0.2872,0.301,0.3032,0.2914,0,0,0,0,0,0,0.1713,0.177,0.1788,0.177,0.1787,0.1868,0.1955,0.2084,0.208,0.2278,0.2319,0.2466,0.2556,0.2679,0.2645,0.2673,0.2643,0.2942,0.2935,0.2998,0.3018,0.3035,0.2922,0,0,0,0,0]},{"header":{"parameterUnit":"m.s-1","parameterCategory":2,"la1":30.2991,"la2":30.254,"lo1":-89.0895,"lo2":-89.0444,"dy":0.0017,"dx":0.0017,"nx":28,"ny":28,"refTime":"2024-02-05T03:00:00:Z","depth":"4","parameterNumber":3,"parameterNumberName":"V-component_of_CURRENTS"},"data":[0,0,0,0,0,0,0,0,0,0,0,0,0,0,0,0,0,0,0,0,0,0,0,0,0,0,0,0,0,0,0,0,0,0,0,0,0,0,0,0,0,0,0,0,0,0,0,0,0,0,0,0,0,0,0,0,0,0,0.0183,0.0182,0,0.0143,0.0142,0.0142,0.0112,0.0112,0.0112,0.0112,0.0056,0.0054,0.0053,0,0,0,0,0,0,0,0,0,0,0,0,0,0.0196,0.0196,0.0183,0.0182,0.0182,0.0143,0.0142,0.0141,0.0112,0.0112,0.0112,0.0112,0.0056,0.0054,0.0053,0,0,0,0,0,0,0,0,0,0,0,0,0,0.0176,0.0196,0.0183,0.0164,0.0162,0.0143,0.0142,0.0141,0.0112,0.0112,0.0112,0.0112,0.0057,0.0055,0.0053,0.0044,0,0,0.0046,0.0045,0,0,0,0,0,0,0,0,0.0177,0.0175,0.0167,0.0165,0.0163,0.0133,0.0126,0.0108,0.0112,0.013,0.0112,0.0112,0.0081,0.0077,0.0068,0.0041,0.0039,0.0046,0.0045,0.0044,0.0043,0,0,0,0,0,0,0,0.0178,0.0176,0.0166,0.0167,0.0164,0.0144,0.0141,0.0122,0.0106,0.0128,0.0126,0.0124,0.008,0.007,0.0067,0.0038,0.0046,0.0044,0.0043,0.0042,0.0002,0.0002,0,0,0,0,0,0,0.0188,0.0178,0.0167,0.0165,0.0171,0.0144,0.0141,0.0142,0.0106,0.0101,0.0124,0.0123,0.0074,0.0069,0.0065,0.0068,0.0044,0.0042,0.0041,0.0002,0.0002,0.0002,0,0,0,0,0,0,0.0189,0.0188,0.0169,0.0171,0.0167,0.0145,0.0146,0.0141,0.0137,0.0104,0.0098,0.0125,0.0074,0.0068,0.0055,0.0065,0.0041,0.0039,0.0001,0.0002,0.0002,0.0065,0,0,0,0,0,0,0.0189,0.0188,0.0195,0.0172,0.0168,0.0167,0.0146,0.0141,0.0136,0.0134,0.0103,0.0097,0.0073,0.0059,0.0053,0.0062,0.0038,0.0001,0.0002,0.0002,0.0063,0.0067,0.0071,0,0,0,0,0,0.019,0.0203,0.0196,0.0194,0.0177,0.0168,0.0164,0.0146,0.0137,0.014,0.0118,0.0098,0.0057,0.0058,0.0051,0.0059,0.0001,0.0001,0.0002,0.0061,0.0066,0.0071,0,0,0,0,0,0,0.0212,0.02,0.0192,0.0201,0.0189,0.0164,0.0166,0.0152,0.0137,0.0137,0.0103,0.0096,0.0087,0.0064,0.0065,0.0047,0.0024,0.0024,0.0071,0.0076,0.0081,0.0102,0.0036,0,0,0,0,0,0.022,0.0228,0.021,0.0217,0.0214,0.0191,0.0186,0.0175,0.0157,0.015,0.0127,0.0102,0.0083,0.0073,0.0051,0.0045,0.0014,0.0043,0.0048,0.0052,0.0064,0.0021,0.0023,0.0003,0.0003,0.0003,0,0,0.0231,0.0226,0.023,0.0222,0.0212,0.0217,0.0188,0.0187,0.0194,0.0147,0.0149,0.0118,0.0084,0.0076,0.0069,0.0059,0.004,0.0052,0.0056,0.0066,0.0022,0.0024,0.0025,0.0004,0.0003,0.0003,0,0,0.0258,0.0251,0.0268,0.0263,0.0255,0.0241,0.0245,0.0224,0.0219,0.0212,0.0181,0.0159,0.0129,0.0107,0.0092,0.0106,0.0065,0.0097,0.0137,0.0096,0.0097,0.0098,0.0061,0.0058,0.0099,0.0099,0.0099,0,0.0271,0.029,0.027,0.0285,0.029,0.0257,0.0277,0.0265,0.0244,0.0244,0.0222,0.0175,0.0145,0.0135,0.0139,0.0118,0.0088,0.0123,0.0102,0.0103,0.0103,0.0064,0.006,0.0102,0.0102,0.0102,0.0101,0,0.031,0.0326,0.0335,0.0344,0.0346,0.0357,0.0341,0.0343,0.0326,0.0307,0.0291,0.0242,0.0216,0.0197,0.0174,0.0161,0.0138,0.0113,0.0093,0.0109,0.0066,0.0061,0.0107,0.0106,0.0105,0.0104,0,0,0.0339,0.0359,0.0365,0.0385,0.0381,0.039,0.0404,0.0407,0.0422,0.0381,0.039,0.034,0.0305,0.0285,0.0244,0.0207,0.0175,0.0168,0.0164,0.0138,0.0086,0.0069,0.0061,0.0145,0.0145,0.0145,0.0056,0,0.0377,0.0425,0.0421,0.0466,0.049,0.0475,0.0493,0.0491,0.0474,0.0472,0.0413,0.0399,0.034,0.0331,0.0283,0.0206,0.0165,0.0202,0.0069,0.0065,0.0054,0.0056,0.0143,0.0052,0.0051,0.005,0.0049,0,0.0417,0.0447,0.0502,0.054,0.055,0.057,0.06,0.0615,0.0598,0.0586,0.055,0.0497,0.0444,0.0389,0.026,0.0286,0.0198,0.0128,0.0122,0.0084,0.0039,0.0031,0.0039,0.004,0.004,0.0041,0.0042,0,0.0455,0.0504,0.0554,0.0567,0.06,0.0629,0.0649,0.0651,0.0683,0.0662,0.067,0.058,0.0548,0.0424,0.0275,0.0268,0.0125,0.0093,-0.0008,-0.0011,0.0003,0.0003,0.0001,0.0001,0.0001,0.0001,0.0002,0,0.0494,0.0536,0.0581,0.0609,0.0683,0.0685,0.0755,0.0761,0.078,0.0817,0.0735,0.0733,0.0556,0.0449,0.0303,0.0134,0.014,0.0004,-0.0033,0.003,0.0034,-0.0001,-0.0,-0.0002,-0.0001,-0.0,0.0,0,0.0524,0.055,0.0616,0.0673,0.0704,0.0759,0.0844,0.0887,0.0895,0.0942,0.0942,0.0851,0.0706,0.0518,0.0311,0.0182,0.0015,-0.0048,0.0043,0.0011,-0.0101,-0.0096,-0.0167,-0.0168,-0.0169,-0.017,-0.0171,0,0.054,0.0578,0.0674,0.0727,0.0759,0.0847,0.0908,0.0949,0.0999,0.1012,0.1035,0.0918,0.0828,0.0534,0.0323,0.0038,-0.0009,-0.0098,-0.0109,-0.0088,-0.0118,-0.0111,-0.0104,-0.0173,-0.0173,-0.0173,-0.0173,0,0.0574,0.0609,0.0666,0.0782,0.0862,0.0961,0.105,0.1098,0.1138,0.1146,0.1111,0.0954,0.0789,0.0542,0.0318,0.0112,-0.0043,-0.0111,-0.011,-0.0121,-0.0096,-0.0123,-0.0115,-0.0177,-0.0177,-0.0176,-0.0176,0,0.06,0.0647,0.0727,0.0829,0.0939,0.104,0.1087,0.1141,0.1192,0.1193,0.1178,0.0995,0.0888,0.0581,0.0378,0.0168,0.0107,0.0031,0.0023,0.0025,0.0097,0.0157,0.0129,0,0,0,0,0,0.0622,0.0676,0.0768,0.088,0.0989,0.1059,0.1166,0.12,0.124,0.1223,0.1204,0.1047,0.0743,0.0619,0.0407,0.034,0.0061,0.0081,-0.0032,-0.0198,-0.0194,-0.0144,0,0,0,0,0,0,0.0634,0.0718,0.0765,0.0906,0.0989,0.1116,0.1188,0.1214,0.121,0.1211,0.1059,0.0983,0.0693,0.0863,0.0399,0.0337,0.0232,-0.0056,-0.0061,-0.02,-0.0196,-0.0193,-0.014,0,0,0,0,0]}]]